EROS C3 (54880 NORAD) Tracking and Keplerian Element Data

This shows tracking and keplerian element data for the satellite.

Feedback or suggestion? Click here.




ElementValue
Catalog54880
NameEROS C3
Epoch Orbit229
Epoch Day14.33272563
Epoch Year2023
RAAN308.6807
Inclination139.3568
Eccentricity0.0010676
Argument of Perigee11.0605
Mean Anonmoly142.6908
Mean Motion15.24567064
Decay Rate2.61E-06
L11 54880U 22179A 23014.33272563 .00000261 00000+0 00000+0 0 9994
L22 54880 139.3568 308.6807 0010676 11.0605 142.6908 15.24567064 2290



Live tracking and technical data element details for EROS C3 (NORAD 54880). EROS C3 can be tracked NOW for your location showing map with azimuth and elevation plus other details from your city location.







IsCatalogInMostPopularTable: catalog: 54880, numindb: 3
Update: records affected: 1



GetName: 54880 EROS C3

Hit Count: updated at: Tue, 07 Feb 2023 14:40:25 GMT